FENGYUN 1C DEB, 31186

Orbit data source: Space-Track

FENGYUN 1C DEB, 31186 is space debris in SSO originally from a launch on Mon, 10 May 1999 UTC launched from the Taiyaun Space Center, China (TSC). Fengyun 1C debris stems from the Chinese weather satellite Fengyun-1C, which was intentionally destroyed by a Chinese anti-satellite missile in 2007. This event dramatically increased the amount of space debris, with thousands of trackable fragments posing hazards to satellites and human spaceflight. The Fengyun 1C debris cloud has become a focal point in discussions about space sustainability and the need for international regulations to prevent the creation of new debris.

Loading next visibility...
Identifier
31186, 1999-025BJQ
Orbit
SSO
Country
Flag of CNCN / PRC
Related business
Manufacturer
Unknown
Mission
Spacecraft
Bus & Motor
Unknown
Mass
Unknown
Launch date (UTC)
1999-05-10 (27 years ago)
Launch vehicle
Unknown
Launch site
Taiyaun Space Center, China (TSC)
Object type
Payload
Rocket body
Debris
Shape & HBR
Unknown shape, 0.1 m
Radar Cross Section
Small (<0.1 m²)

Expand to show TLE details & history
Last TLE update: 4 days ago

TLE from 4 days ago
0 FENGYUN 1C DEB
1 31186U 99025BJQ 26165.05174263  .00000562  00000-0  32442-3 0  9993
2 31186  99.1810  90.0367 0024124 269.3339 111.3839 14.13221486986946
Epoch: 2026-06-14T01:14Z
TLE epoch observation values (Epoch: 2026-06-14T01:14:30.563Z)
Latitude
20.70144°
Longitude
165.56815°
Altitude
857.3 km
Speed
7.422 km/s
True Right ascension
05h 46m 12s
True Declination
20° 35' 22"
Sunlit
Object was in daylight at epoch
Visualization orbit readout
Latitude
Unknown
Longitude
Unknown
Altitude
Unknown
Speed
Unknown
Apparent Right ascension
Unknown
Apparent Declination
Unknown
Sunlit
N/A
Visualization observer readout
Local Sidereal Time
20:27:42
Azimuth
Unknown
Elevation
Unknown
Doppler factor
Unknown
Orbital elements
Apogee altitude
862.986 km
Perigee altitude
828.133 km
Semi-major axis
7,223.696 km
Eccentricity
0.00241
Inclination
99.181°
RAAN
90.0367°
Arg. of periapsis
269.3339°
True anomaly
111.64103°
Mean anomaly
111.3839°
Eccentric anomaly
111.51249°
Mean motion
3.53512 °/min
Orbital period
101.84 mins
BSTAR
0.00032442
Loading maneuver chart data...
Computing Atmospheric mass density...
Loading historical data...
Loading historical data...
Loading historical data...
Loading historical data...
Loading historical data...
Loading historical data...
Loading historical data...

Documentation

Showing up to 5 results
|